THORAD AGENA D DEB

Satellite information

Favourite Embed

Satellite Type and Status

DEBRISIN ORBIT

Key statistics

Satellite THORAD AGENA D DEB at a glance.

Uptime

20313

Days in orbit

Revolutions

≈ 14.3

Per day

Orbit

LEO

Low Earth Orbit

Inclination

70.0

Latest

Satellite identification and parameters

Extended collection of information and parameters for THORAD AGENA D DEB.

Object identification

Identified? True

Debris? True

Object name: THORAD AGENA D DEB

International designator: 1969-082ED

Object number (NORAD): 4432

Object ID (CCSDS): 4432

Country: UNITED STATES OF AMERICA (US)

Current information (Y/N): Y

RCS size: SMALL

Orbital parameters

Period: 100.708 minutes

Inclination: 69.9748 deg

SMA: 7170.283 km

Apoapsis: 830.805 km

Periapsis: 753.492 km

RAAN: 128.0026 deg

Eccentricy: 0.0053912

Argument of periapsis: 324.4323 deg

Mean anomaly: 35.3211 deg

Mean motion: 14.29875755 rev/day

Mean motion (dot): 0.0000072 rev/day2

B* drag term: 0.00029737 1/REarth

Two-line elements (TLE)

Creation date: May 12, 2025, 2:31 a.m.

Reference frame: TEME

Reference center: EARTH

Epoch: May 11, 2025, 3:15 p.m. UTC

TLE line 0: 0 THORAD AGENA D DEB

TLE line 1: 1 04432U 69082ED 25131.63575297 .00000720 00000-0 29737-3 0 9994

TLE line 2: 2 04432 69.9748 128.0026 0053912 324.4323 35.3211 14.29875755877671

Live tracking on map

Real-time ground track for satellite THORAD AGENA D DEB.

In-orbit conjunctions

A list of the most updated potential collisions computed for object THORAD AGENA D DEB.

Target Orbit TCA Probability of collision Miss distance Type
CZ-6A DEB SSO 2024-11-16 20:52:51 0.001152333 245.0 (m) DEBRIS
SL-16 DEB LEO 2024-11-09 14:57:45 0.0003443854 287.0 (m) DEBRIS

Associated space launch

Poppy was the follow-on ELINT system, which succeeded the Grab ELINT satellite system.

THORAD AGENA D DEB was lifted into orbit during the mission ‘Thorad SLV-2G Agena D | Poppy 8A,B,C,D’, on board a Thorad SLV-2G Agena D space rocket.

The launch took place on Sept. 30, 1969, 1:40 p.m. from Space Launch Complex 1W.

For more information about the launch, click the button.

Launch to space Thorad SLV-2G Agena D | Poppy 8A,B,C,D
Thorad SLV-2G Agena D | Poppy 8A,B,C,D

Agency: N/A

Status: Launch Successful

Launch date: Sept. 30, 1969, 1:40 p.m. UTC

Rocket: Thorad SLV-2G Agena D

Launch pad: Space Launch Complex 1W

Location: Vandenberg SFB, CA, USA

...

Latest news about this satellite

There are no fresh news available about this satellite. Check back as we update our databases every day.


Newsletter sign-up

Weekly statistics, charts and insights to help you stay on top of the space industry.